Year,Month,Day,Hour,Minute,Value (Times are PST for temperature in C)
2017,09,07,00,00,18.40
2017,09,07,00,01,18.40
2017,09,07,00,02,18.40
2017,09,07,00,03,18.40
2017,09,07,00,04,18.40
2017,09,07,00,05,18.40
2017,09,07,00,06,18.40
2017,09,07,00,07,18.40
2017,09,07,00,08,18.40
2017,09,07,00,09,18.40
2017,09,07,00,10,18.40
2017,09,07,00,11,18.40
2017,09,07,00,12,18.40
2017,09,07,00,13,18.40
2017,09,07,00,14,18.30
2017,09,07,00,15,18.30
2017,09,07,00,16,18.30
2017,09,07,00,17,18.30
2017,09,07,00,18,18.30
2017,09,07,00,19,18.30
2017,09,07,00,20,18.30
2017,09,07,00,21,18.30
2017,09,07,00,22,18.30
2017,09,07,00,23,18.30
2017,09,07,00,24,18.30
2017,09,07,00,25,18.30
2017,09,07,00,26,18.20
2017,09,07,00,27,18.20
2017,09,07,00,28,18.20
2017,09,07,00,29,18.20
2017,09,07,00,30,18.20
2017,09,07,00,31,18.20
2017,09,07,00,32,18.20
2017,09,07,00,33,18.20
2017,09,07,00,34,18.20
2017,09,07,00,35,18.20
2017,09,07,00,36,18.20
2017,09,07,00,37,18.20
2017,09,07,00,38,18.20
2017,09,07,00,39,18.20
2017,09,07,00,40,18.10
2017,09,07,00,41,18.10
2017,09,07,00,42,18.10
2017,09,07,00,43,18.10
2017,09,07,00,44,18.10
2017,09,07,00,45,18.10
2017,09,07,00,46,18.10
2017,09,07,00,47,18.00
2017,09,07,00,48,18.00
2017,09,07,00,49,18.00
2017,09,07,00,50,18.00
2017,09,07,00,51,18.00
2017,09,07,00,52,18.00
2017,09,07,00,53,17.90
2017,09,07,00,54,17.90
2017,09,07,00,55,17.90
2017,09,07,00,56,17.90
2017,09,07,00,57,17.90
2017,09,07,00,58,17.90
2017,09,07,00,59,17.90
2017,09,07,01,00,17.90
2017,09,07,01,01,17.90
2017,09,07,01,02,17.90
2017,09,07,01,03,17.90
2017,09,07,01,04,17.90
2017,09,07,01,05,17.90
2017,09,07,01,06,17.90
2017,09,07,01,07,17.90
2017,09,07,01,08,17.90
2017,09,07,01,09,17.90
2017,09,07,01,10,17.90
2017,09,07,01,11,17.90
2017,09,07,01,12,17.80
2017,09,07,01,13,17.90
2017,09,07,01,14,17.80
2017,09,07,01,15,17.80
2017,09,07,01,16,17.80
2017,09,07,01,17,17.80
2017,09,07,01,18,17.80
2017,09,07,01,19,17.80
2017,09,07,01,20,17.80
2017,09,07,01,21,17.80
2017,09,07,01,22,17.80
2017,09,07,01,23,17.80
2017,09,07,01,24,17.80
2017,09,07,01,25,17.80
2017,09,07,01,26,17.90
2017,09,07,01,27,17.90
2017,09,07,01,28,17.90
2017,09,07,01,29,17.90
2017,09,07,01,30,17.90
2017,09,07,01,31,17.90
2017,09,07,01,32,18.00
2017,09,07,01,33,18.00
2017,09,07,01,34,18.00
2017,09,07,01,35,18.00
2017,09,07,01,36,18.00
2017,09,07,01,37,18.00
2017,09,07,01,38,18.00
2017,09,07,01,39,18.00
2017,09,07,01,40,18.00
2017,09,07,01,41,18.00
2017,09,07,01,42,18.00
2017,09,07,01,43,18.00
2017,09,07,01,44,18.00
2017,09,07,01,45,18.00
2017,09,07,01,46,18.00
2017,09,07,01,47,18.00
2017,09,07,01,48,17.90
2017,09,07,01,49,17.90
2017,09,07,01,50,17.90
2017,09,07,01,51,17.90
2017,09,07,01,52,17.90
2017,09,07,01,53,17.90
2017,09,07,01,54,17.90
2017,09,07,01,55,17.90
2017,09,07,01,56,17.90
2017,09,07,01,57,17.90
2017,09,07,01,58,17.80
2017,09,07,01,59,17.80
2017,09,07,02,00,17.80
2017,09,07,02,01,17.80
2017,09,07,02,02,17.80
2017,09,07,02,03,17.80
2017,09,07,02,04,17.80
2017,09,07,02,05,17.80
2017,09,07,02,06,17.80
2017,09,07,02,07,17.80
2017,09,07,02,08,17.70
2017,09,07,02,09,17.70
2017,09,07,02,10,17.70
2017,09,07,02,11,17.70
2017,09,07,02,12,17.70
2017,09,07,02,13,17.70
2017,09,07,02,14,17.60
2017,09,07,02,15,17.60
2017,09,07,02,16,17.60
2017,09,07,02,17,17.60
2017,09,07,02,18,17.60
2017,09,07,02,19,17.50
2017,09,07,02,20,17.50
2017,09,07,02,21,17.50
2017,09,07,02,22,17.50
2017,09,07,02,23,17.50
2017,09,07,02,24,17.40
2017,09,07,02,25,17.40
2017,09,07,02,26,17.40
2017,09,07,02,27,17.40
2017,09,07,02,28,17.40
2017,09,07,02,29,17.40
2017,09,07,02,30,17.30
2017,09,07,02,31,17.30
2017,09,07,02,32,17.30
2017,09,07,02,33,17.30
2017,09,07,02,34,17.30
2017,09,07,02,35,17.30
2017,09,07,02,36,17.30
2017,09,07,02,37,17.30
2017,09,07,02,38,17.20
2017,09,07,02,39,17.20
2017,09,07,02,40,17.20
2017,09,07,02,41,17.20
2017,09,07,02,42,17.20
2017,09,07,02,43,17.20
2017,09,07,02,44,17.20
2017,09,07,02,45,17.20
2017,09,07,02,46,17.20
2017,09,07,02,47,17.20
2017,09,07,02,48,17.20
2017,09,07,02,49,17.20
2017,09,07,02,50,17.20
2017,09,07,02,51,17.20
2017,09,07,02,52,17.20
2017,09,07,02,53,17.20
2017,09,07,02,54,17.20
2017,09,07,02,55,17.20
2017,09,07,02,56,17.20
2017,09,07,02,57,17.20
2017,09,07,02,58,17.20
2017,09,07,02,59,17.20
2017,09,07,03,00,17.30
2017,09,07,03,01,17.30
2017,09,07,03,02,17.30
2017,09,07,03,03,17.30
2017,09,07,03,04,17.30
2017,09,07,03,05,17.40
2017,09,07,03,06,17.40
2017,09,07,03,07,17.40
2017,09,07,03,08,17.40
2017,09,07,03,09,17.40
2017,09,07,03,10,17.40
2017,09,07,03,11,17.40
2017,09,07,03,12,17.40
2017,09,07,03,13,17.40
2017,09,07,03,14,17.50
2017,09,07,03,15,17.50
2017,09,07,03,16,17.50
2017,09,07,03,17,17.60
2017,09,07,03,18,17.60
2017,09,07,03,19,17.60
2017,09,07,03,20,17.60
2017,09,07,03,21,17.60
2017,09,07,03,22,17.60
2017,09,07,03,23,17.60
2017,09,07,03,24,17.60
2017,09,07,03,25,17.60
2017,09,07,03,26,17.60
2017,09,07,03,27,17.60
2017,09,07,03,28,17.70
2017,09,07,03,29,17.70
2017,09,07,03,30,17.70
2017,09,07,03,31,17.70
2017,09,07,03,32,17.70
2017,09,07,03,33,17.60
2017,09,07,03,34,17.70
2017,09,07,03,35,17.70
2017,09,07,03,36,17.70
2017,09,07,03,37,17.70
2017,09,07,03,38,17.70
2017,09,07,03,39,17.70
2017,09,07,03,40,17.70
2017,09,07,03,41,17.70
2017,09,07,03,42,17.70
2017,09,07,03,43,17.70
2017,09,07,03,44,17.70
2017,09,07,03,45,17.70
2017,09,07,03,46,17.70
2017,09,07,03,47,17.70
2017,09,07,03,48,17.70
2017,09,07,03,49,17.70
2017,09,07,03,50,17.80
2017,09,07,03,51,17.80
2017,09,07,03,52,17.80
2017,09,07,03,53,17.80
2017,09,07,03,54,17.80
2017,09,07,03,55,17.80
2017,09,07,03,56,17.80
2017,09,07,03,57,17.80
2017,09,07,03,58,17.80
2017,09,07,03,59,17.80
2017,09,07,04,00,17.80
2017,09,07,04,01,17.80
2017,09,07,04,02,17.80
2017,09,07,04,03,17.80
2017,09,07,04,04,17.80
2017,09,07,04,05,17.80
2017,09,07,04,06,17.80
2017,09,07,04,07,17.80
2017,09,07,04,08,17.80
2017,09,07,04,09,17.80
2017,09,07,04,10,17.80
2017,09,07,04,11,17.80
2017,09,07,04,12,17.80
2017,09,07,04,13,17.80
2017,09,07,04,14,17.80
2017,09,07,04,15,17.80
2017,09,07,04,16,17.80
2017,09,07,04,17,17.80
2017,09,07,04,18,17.80
2017,09,07,04,19,17.80
2017,09,07,04,20,17.80
2017,09,07,04,21,17.80
2017,09,07,04,22,17.80
2017,09,07,04,23,17.80
2017,09,07,04,24,17.70
2017,09,07,04,25,17.70
2017,09,07,04,26,17.70
2017,09,07,04,27,17.80
2017,09,07,04,28,17.80
2017,09,07,04,29,17.80
2017,09,07,04,30,17.80
2017,09,07,04,31,17.80
2017,09,07,04,32,17.80
2017,09,07,04,33,17.80
2017,09,07,04,34,17.80
2017,09,07,04,35,17.80
2017,09,07,04,36,17.80
2017,09,07,04,37,17.80
2017,09,07,04,38,17.80
2017,09,07,04,39,17.80
2017,09,07,04,40,17.80
2017,09,07,04,41,17.80
2017,09,07,04,42,17.80
2017,09,07,04,43,17.80
2017,09,07,04,44,17.80
2017,09,07,04,45,17.80
2017,09,07,04,46,17.80
2017,09,07,04,47,17.80
2017,09,07,04,48,17.80
2017,09,07,04,49,17.90
2017,09,07,04,50,17.90
2017,09,07,04,51,17.90
2017,09,07,04,52,17.90
2017,09,07,04,53,17.90
2017,09,07,04,54,17.90
2017,09,07,04,55,17.90
2017,09,07,04,56,17.90
2017,09,07,04,57,17.90
2017,09,07,04,58,17.90
2017,09,07,04,59,17.90
2017,09,07,05,00,17.90
2017,09,07,05,01,17.90
2017,09,07,05,02,18.00
2017,09,07,05,03,18.00
2017,09,07,05,04,18.00
2017,09,07,05,05,18.00
2017,09,07,05,06,18.00
2017,09,07,05,07,18.10
2017,09,07,05,08,18.10
2017,09,07,05,09,18.10
2017,09,07,05,10,18.10
2017,09,07,05,11,18.10
2017,09,07,05,12,18.10
2017,09,07,05,13,18.10
2017,09,07,05,14,18.10
2017,09,07,05,15,18.10
2017,09,07,05,16,18.10
2017,09,07,05,17,18.10
2017,09,07,05,18,18.10
2017,09,07,05,19,18.10
2017,09,07,05,20,18.10
2017,09,07,05,21,18.10
2017,09,07,05,22,18.10
2017,09,07,05,23,18.10
2017,09,07,05,24,18.10
2017,09,07,05,25,18.10
2017,09,07,05,26,18.10
2017,09,07,05,27,18.10
2017,09,07,05,28,18.10
2017,09,07,05,29,18.10
2017,09,07,05,30,18.10
2017,09,07,05,31,18.10
2017,09,07,05,32,18.10
2017,09,07,05,33,18.10
2017,09,07,05,34,18.10
2017,09,07,05,35,18.20
2017,09,07,05,36,18.20
2017,09,07,05,37,18.20
2017,09,07,05,38,18.20
2017,09,07,05,39,18.20
2017,09,07,05,40,18.20
2017,09,07,05,41,18.20
2017,09,07,05,42,18.20
2017,09,07,05,43,18.20
2017,09,07,05,44,18.20
2017,09,07,05,45,18.20
2017,09,07,05,46,18.20
2017,09,07,05,47,18.20
2017,09,07,05,48,18.20
2017,09,07,05,49,18.20
2017,09,07,05,50,18.20
2017,09,07,05,51,18.20
2017,09,07,05,52,18.20
2017,09,07,05,53,18.20
2017,09,07,05,54,18.20
2017,09,07,05,55,18.20
2017,09,07,05,56,18.20
2017,09,07,05,57,18.20
2017,09,07,05,58,18.20
2017,09,07,05,59,18.20
2017,09,07,06,00,18.20
2017,09,07,06,01,18.20
2017,09,07,06,02,18.20
2017,09,07,06,03,18.20
2017,09,07,06,04,18.20
2017,09,07,06,05,18.20
2017,09,07,06,06,18.20
2017,09,07,06,07,18.20
2017,09,07,06,08,18.20
2017,09,07,06,09,18.20
2017,09,07,06,10,18.20
2017,09,07,06,11,18.20
2017,09,07,06,12,18.20
2017,09,07,06,13,18.20
2017,09,07,06,14,18.20
2017,09,07,06,15,18.10
2017,09,07,06,16,18.10
2017,09,07,06,17,18.10
2017,09,07,06,18,18.10
2017,09,07,06,19,18.10
2017,09,07,06,20,18.10
2017,09,07,06,21,18.00
2017,09,07,06,22,18.00
2017,09,07,06,23,18.00
2017,09,07,06,24,18.00
2017,09,07,06,25,17.90
2017,09,07,06,26,17.90
2017,09,07,06,27,17.90
2017,09,07,06,28,17.90
2017,09,07,06,29,17.90
2017,09,07,06,30,17.90
2017,09,07,06,31,17.80
2017,09,07,06,32,17.80
2017,09,07,06,33,17.80
2017,09,07,06,34,17.80
2017,09,07,06,35,17.80
2017,09,07,06,36,17.80
2017,09,07,06,37,17.80
2017,09,07,06,38,17.80
2017,09,07,06,39,17.80
2017,09,07,06,40,17.70
2017,09,07,06,41,17.70
2017,09,07,06,42,17.70
2017,09,07,06,43,17.70
2017,09,07,06,44,17.70
2017,09,07,06,45,17.70
2017,09,07,06,46,17.70
2017,09,07,06,47,17.70
2017,09,07,06,48,17.70
2017,09,07,06,49,17.70
2017,09,07,06,50,17.60
2017,09,07,06,51,17.60
2017,09,07,06,52,17.60
2017,09,07,06,53,17.60
2017,09,07,06,54,17.60
2017,09,07,06,55,17.60
2017,09,07,06,56,17.60
2017,09,07,06,57,17.60
2017,09,07,06,58,17.60
2017,09,07,06,59,17.50
2017,09,07,07,00,17.50
2017,09,07,07,01,17.50
2017,09,07,07,02,17.50
2017,09,07,07,03,17.50
2017,09,07,07,04,17.50
2017,09,07,07,05,17.50
2017,09,07,07,06,17.50
2017,09,07,07,07,17.50
2017,09,07,07,08,17.50
2017,09,07,07,09,17.50
2017,09,07,07,10,17.50
2017,09,07,07,11,17.50
2017,09,07,07,12,17.50
2017,09,07,07,13,17.50
2017,09,07,07,14,17.50
2017,09,07,07,15,17.50
2017,09,07,07,16,17.50
2017,09,07,07,17,17.50
2017,09,07,07,18,17.50
2017,09,07,07,19,17.60
2017,09,07,07,20,17.60
2017,09,07,07,21,17.60
2017,09,07,07,22,17.60
2017,09,07,07,23,17.60
2017,09,07,07,24,17.60
2017,09,07,07,25,17.60
2017,09,07,07,26,17.60
2017,09,07,07,27,17.60
2017,09,07,07,28,17.60
2017,09,07,07,29,17.60
2017,09,07,07,30,17.70
2017,09,07,07,31,17.60
2017,09,07,07,32,17.60
2017,09,07,07,33,17.70
2017,09,07,07,34,17.60
2017,09,07,07,35,17.70
2017,09,07,07,36,17.70
2017,09,07,07,37,17.70
2017,09,07,07,38,17.70
2017,09,07,07,39,17.70
2017,09,07,07,40,17.70
2017,09,07,07,41,17.70
2017,09,07,07,42,17.70
2017,09,07,07,43,17.70
2017,09,07,07,44,17.70
2017,09,07,07,45,17.70
2017,09,07,07,46,17.70
2017,09,07,07,47,17.70
2017,09,07,07,48,17.70
2017,09,07,07,49,17.70
2017,09,07,07,50,17.70
2017,09,07,07,51,17.70
2017,09,07,07,52,17.80
2017,09,07,07,53,17.80
2017,09,07,07,54,17.80
2017,09,07,07,55,17.80
2017,09,07,07,56,17.80
2017,09,07,07,57,17.80
2017,09,07,07,58,17.90
2017,09,07,07,59,17.90
2017,09,07,08,00,17.90
2017,09,07,08,01,17.90
2017,09,07,08,02,17.90
2017,09,07,08,03,17.90
2017,09,07,08,04,17.90
2017,09,07,08,05,17.90
2017,09,07,08,06,18.00
2017,09,07,08,07,18.00
2017,09,07,08,08,18.00
2017,09,07,08,09,18.00
2017,09,07,08,10,18.00
2017,09,07,08,11,18.00
2017,09,07,08,12,18.00
2017,09,07,08,13,18.00
2017,09,07,08,14,18.10
2017,09,07,08,15,18.10
2017,09,07,08,16,18.10
2017,09,07,08,17,18.10
2017,09,07,08,18,18.10
2017,09,07,08,19,18.10
2017,09,07,08,20,18.10
2017,09,07,08,21,18.20
2017,09,07,08,22,18.20
2017,09,07,08,23,18.20
2017,09,07,08,24,18.20
2017,09,07,08,25,18.20
2017,09,07,08,26,18.30
2017,09,07,08,27,18.30
2017,09,07,08,28,18.30
2017,09,07,08,29,18.40
2017,09,07,08,30,18.40
2017,09,07,08,31,18.40
2017,09,07,08,32,18.50
2017,09,07,08,33,18.50
2017,09,07,08,34,18.60
2017,09,07,08,35,18.60
2017,09,07,08,36,18.70
2017,09,07,08,37,18.70
2017,09,07,08,38,18.70
2017,09,07,08,39,18.80
2017,09,07,08,40,18.80
2017,09,07,08,41,18.80
2017,09,07,08,42,18.90
2017,09,07,08,43,18.90
2017,09,07,08,44,19.00
2017,09,07,08,45,19.10
2017,09,07,08,46,19.10
2017,09,07,08,47,19.20
2017,09,07,08,48,19.20
2017,09,07,08,49,19.30
2017,09,07,08,50,19.30
2017,09,07,08,51,19.40
2017,09,07,08,52,19.40
2017,09,07,08,53,19.40
2017,09,07,08,54,19.40
2017,09,07,08,55,19.40
2017,09,07,08,56,19.50
2017,09,07,08,57,19.50
2017,09,07,08,58,19.50
2017,09,07,08,59,19.50
2017,09,07,09,00,19.50
2017,09,07,09,01,19.50
2017,09,07,09,02,19.50
2017,09,07,09,03,19.50
2017,09,07,09,04,19.50
2017,09,07,09,05,19.50
2017,09,07,09,06,19.50
2017,09,07,09,07,19.50
2017,09,07,09,08,19.50
2017,09,07,09,09,19.50
2017,09,07,09,10,19.50
2017,09,07,09,11,19.50
2017,09,07,09,12,19.50
2017,09,07,09,13,19.60
2017,09,07,09,14,19.60
2017,09,07,09,15,19.60
2017,09,07,09,16,19.70
2017,09,07,09,17,19.70
2017,09,07,09,18,19.70
2017,09,07,09,19,19.80
2017,09,07,09,20,19.80
2017,09,07,09,21,19.80
2017,09,07,09,22,19.90
2017,09,07,09,23,19.90
2017,09,07,09,24,20.00
2017,09,07,09,25,20.00
2017,09,07,09,26,20.10
2017,09,07,09,27,20.10
2017,09,07,09,28,20.20
2017,09,07,09,29,20.20
2017,09,07,09,30,20.30
2017,09,07,09,31,20.30
2017,09,07,09,32,20.30
2017,09,07,09,33,20.40
2017,09,07,09,34,20.40
2017,09,07,09,35,20.40
2017,09,07,09,36,20.50
2017,09,07,09,37,20.50
2017,09,07,09,38,20.50
2017,09,07,09,39,20.60
2017,09,07,09,40,20.60
2017,09,07,09,41,20.60
2017,09,07,09,42,20.60
2017,09,07,09,43,20.60
2017,09,07,09,44,20.60
2017,09,07,09,45,20.60
2017,09,07,09,46,20.60
2017,09,07,09,47,20.60
2017,09,07,09,48,20.50
2017,09,07,09,49,20.50
2017,09,07,09,50,20.40
2017,09,07,09,51,20.40
2017,09,07,09,52,20.40
2017,09,07,09,53,20.40
2017,09,07,09,54,20.40
2017,09,07,09,55,20.40
2017,09,07,09,56,20.50
2017,09,07,09,57,20.50
2017,09,07,09,58,20.60
2017,09,07,09,59,20.60
2017,09,07,10,00,20.60
2017,09,07,10,01,20.60
2017,09,07,10,02,20.70
2017,09,07,10,03,20.70
2017,09,07,10,04,20.70
2017,09,07,10,05,20.80
2017,09,07,10,06,20.80
2017,09,07,10,07,20.80
2017,09,07,10,08,20.80
2017,09,07,10,09,20.90
2017,09,07,10,10,20.90
2017,09,07,10,11,20.90
2017,09,07,10,12,21.00
2017,09,07,10,13,21.00
2017,09,07,10,14,21.00
2017,09,07,10,15,21.00
2017,09,07,10,16,21.10
2017,09,07,10,17,21.10
2017,09,07,10,18,21.10
2017,09,07,10,19,21.10
2017,09,07,10,20,21.10
2017,09,07,10,21,21.10
2017,09,07,10,22,21.10
2017,09,07,10,23,21.20
2017,09,07,10,24,21.20
2017,09,07,10,25,21.20
2017,09,07,10,26,21.20
2017,09,07,10,27,21.20
2017,09,07,10,28,21.20
2017,09,07,10,29,21.20
2017,09,07,10,30,21.20
2017,09,07,10,31,21.20
2017,09,07,10,32,21.20
2017,09,07,10,33,21.20
2017,09,07,10,34,21.20
2017,09,07,10,35,21.20
2017,09,07,10,36,21.20
2017,09,07,10,37,21.20
2017,09,07,10,38,21.20
2017,09,07,10,39,21.20
2017,09,07,10,40,21.10
2017,09,07,10,41,21.10
2017,09,07,10,42,21.10
2017,09,07,10,43,21.10
2017,09,07,10,44,21.10
2017,09,07,10,45,21.20
2017,09,07,10,46,21.20
2017,09,07,10,47,21.30
2017,09,07,10,48,21.30
2017,09,07,10,49,21.30
2017,09,07,10,50,21.40
2017,09,07,10,51,21.40
2017,09,07,10,52,21.50
2017,09,07,10,53,21.50
2017,09,07,10,54,21.60
2017,09,07,10,55,21.60
2017,09,07,10,56,21.70
2017,09,07,10,57,21.80
2017,09,07,10,58,21.80
2017,09,07,10,59,21.90
2017,09,07,11,00,21.90
2017,09,07,11,01,21.90
2017,09,07,11,02,22.00
2017,09,07,11,03,22.00
2017,09,07,11,04,22.10
2017,09,07,11,05,22.10
2017,09,07,11,06,22.20
2017,09,07,11,07,22.20
2017,09,07,11,08,22.20
2017,09,07,11,09,22.30
2017,09,07,11,10,22.30
2017,09,07,11,11,22.40
2017,09,07,11,12,22.40
2017,09,07,11,13,22.40
2017,09,07,11,14,22.40
2017,09,07,11,15,22.40
2017,09,07,11,16,22.40
2017,09,07,11,17,22.40
2017,09,07,11,18,22.40
2017,09,07,11,19,22.40
2017,09,07,11,20,22.30
2017,09,07,11,21,22.30
2017,09,07,11,22,22.30
2017,09,07,11,23,22.30
2017,09,07,11,24,22.30
2017,09,07,11,25,22.30
2017,09,07,11,26,22.20
2017,09,07,11,27,22.10
2017,09,07,11,28,22.10
2017,09,07,11,29,22.10
2017,09,07,11,30,22.00
2017,09,07,11,31,22.00
2017,09,07,11,32,22.00
2017,09,07,11,33,22.00
2017,09,07,11,34,22.00
2017,09,07,11,35,22.10
2017,09,07,11,36,22.10
2017,09,07,11,37,22.10
2017,09,07,11,38,22.10
2017,09,07,11,39,22.10
2017,09,07,11,40,22.10
2017,09,07,11,41,22.10
2017,09,07,11,42,22.10
2017,09,07,11,43,22.10
2017,09,07,11,44,22.10
2017,09,07,11,45,22.20
2017,09,07,11,46,22.20
2017,09,07,11,47,22.20
2017,09,07,11,48,22.20
2017,09,07,11,49,22.30
2017,09,07,11,50,22.30
2017,09,07,11,51,22.30
2017,09,07,11,52,22.30
2017,09,07,11,53,22.40
2017,09,07,11,54,22.40
2017,09,07,11,55,22.50
2017,09,07,11,56,22.50
2017,09,07,11,57,22.60
2017,09,07,11,58,22.60
2017,09,07,11,59,22.70
2017,09,07,12,00,22.70
2017,09,07,12,01,22.70
2017,09,07,12,02,22.80
2017,09,07,12,03,22.90
2017,09,07,12,04,22.90
2017,09,07,12,05,23.00
2017,09,07,12,06,23.10
2017,09,07,12,07,23.10
2017,09,07,12,08,23.10
2017,09,07,12,09,23.20
2017,09,07,12,10,23.20
2017,09,07,12,11,23.30
2017,09,07,12,12,23.30
2017,09,07,12,13,23.30
2017,09,07,12,14,23.30
2017,09,07,12,15,23.30
2017,09,07,12,16,23.30
2017,09,07,12,17,23.30
2017,09,07,12,18,23.30
2017,09,07,12,19,23.30
2017,09,07,12,20,23.20
2017,09,07,12,21,23.20
2017,09,07,12,22,23.20
2017,09,07,12,23,23.10
2017,09,07,12,24,23.10
2017,09,07,12,25,23.00
2017,09,07,12,26,23.00
2017,09,07,12,27,22.90
2017,09,07,12,28,22.90
2017,09,07,12,29,22.90
2017,09,07,12,30,22.80
2017,09,07,12,31,22.80
2017,09,07,12,32,22.80
2017,09,07,12,33,22.70
2017,09,07,12,34,22.70
2017,09,07,12,35,22.60
2017,09,07,12,36,22.60
2017,09,07,12,37,22.50
2017,09,07,12,38,22.40
2017,09,07,12,39,22.40
2017,09,07,12,40,22.30
2017,09,07,12,41,22.20
2017,09,07,12,42,22.10
2017,09,07,12,43,22.10
2017,09,07,12,44,22.00
2017,09,07,12,45,21.90
2017,09,07,12,46,21.80
2017,09,07,12,47,21.80
2017,09,07,12,48,21.70
2017,09,07,12,49,21.70
2017,09,07,12,50,21.60
2017,09,07,12,51,21.60
2017,09,07,12,52,21.50
2017,09,07,12,53,21.40
2017,09,07,12,54,21.40
2017,09,07,12,55,21.40
2017,09,07,12,56,21.40
2017,09,07,12,57,21.40
2017,09,07,12,58,21.30
2017,09,07,12,59,21.30
2017,09,07,13,00,21.30
2017,09,07,13,01,21.30
2017,09,07,13,02,21.30
2017,09,07,13,03,21.30
2017,09,07,13,04,21.30
2017,09,07,13,05,21.30
2017,09,07,13,06,21.30
2017,09,07,13,07,21.30
2017,09,07,13,08,21.40
2017,09,07,13,09,21.40
2017,09,07,13,10,21.40
2017,09,07,13,11,21.40
2017,09,07,13,12,21.40
2017,09,07,13,13,21.40
2017,09,07,13,14,21.40
2017,09,07,13,15,21.50
2017,09,07,13,16,21.50
2017,09,07,13,17,21.50
2017,09,07,13,18,21.50
2017,09,07,13,19,21.50
2017,09,07,13,20,21.50
2017,09,07,13,21,21.60
2017,09,07,13,22,21.60
2017,09,07,13,23,21.60
2017,09,07,13,24,21.60
2017,09,07,13,25,21.60
2017,09,07,13,26,21.60
2017,09,07,13,27,21.60
2017,09,07,13,28,21.70
2017,09,07,13,29,21.70
2017,09,07,13,30,21.70
2017,09,07,13,31,21.70
2017,09,07,13,32,21.80
2017,09,07,13,33,21.80
2017,09,07,13,34,21.80
2017,09,07,13,35,21.80
2017,09,07,13,36,21.80
2017,09,07,13,37,21.80
2017,09,07,13,38,21.90
2017,09,07,13,39,21.90
2017,09,07,13,40,21.90
2017,09,07,13,41,21.90
2017,09,07,13,42,22.00
2017,09,07,13,43,22.00
2017,09,07,13,44,22.00
2017,09,07,13,45,22.10
2017,09,07,13,46,22.10
2017,09,07,13,47,22.10
2017,09,07,13,48,22.10
2017,09,07,13,49,22.10
2017,09,07,13,50,22.20
2017,09,07,13,51,22.20
2017,09,07,13,52,22.20
2017,09,07,13,53,22.20
2017,09,07,13,54,22.20
2017,09,07,13,55,22.20
2017,09,07,13,56,22.30
2017,09,07,13,57,22.30
2017,09,07,13,58,22.30
2017,09,07,13,59,22.30
2017,09,07,14,00,22.20
2017,09,07,14,01,22.20
2017,09,07,14,02,22.20
2017,09,07,14,03,22.20
2017,09,07,14,04,22.20
2017,09,07,14,05,22.20
2017,09,07,14,06,22.20
2017,09,07,14,07,22.20
2017,09,07,14,08,22.20
2017,09,07,14,09,22.20
2017,09,07,14,10,22.20
2017,09,07,14,11,22.10
2017,09,07,14,12,22.10
2017,09,07,14,13,22.00
2017,09,07,14,14,21.90
2017,09,07,14,15,21.80
2017,09,07,14,16,21.70
2017,09,07,14,17,21.70
2017,09,07,14,18,21.60
2017,09,07,14,19,21.50
2017,09,07,14,20,21.50
2017,09,07,14,21,21.40
2017,09,07,14,22,21.30
2017,09,07,14,23,21.30
2017,09,07,14,24,21.20
2017,09,07,14,25,21.20
2017,09,07,14,26,21.20
2017,09,07,14,27,21.20
2017,09,07,14,28,21.10
2017,09,07,14,29,21.10
2017,09,07,14,30,21.10
2017,09,07,14,31,21.10
2017,09,07,14,32,21.10
2017,09,07,14,33,21.10
2017,09,07,14,34,21.10
2017,09,07,14,35,21.10
2017,09,07,14,36,21.10
2017,09,07,14,37,21.10
2017,09,07,14,38,21.10
2017,09,07,14,39,21.10
2017,09,07,14,40,21.10
2017,09,07,14,41,21.10
2017,09,07,14,42,21.10
2017,09,07,14,43,21.10
2017,09,07,14,44,21.10
2017,09,07,14,45,21.10
2017,09,07,14,46,21.00
2017,09,07,14,47,21.00
2017,09,07,14,48,21.00
2017,09,07,14,49,21.00
2017,09,07,14,50,21.00
2017,09,07,14,51,21.00
2017,09,07,14,52,21.00
2017,09,07,14,53,21.00
2017,09,07,14,54,21.00
2017,09,07,14,55,21.00
2017,09,07,14,56,21.00
2017,09,07,14,57,21.00
2017,09,07,14,58,21.00
2017,09,07,14,59,21.00
2017,09,07,15,00,21.00
2017,09,07,15,01,21.00
2017,09,07,15,02,20.90
2017,09,07,15,03,20.90
2017,09,07,15,04,20.80
2017,09,07,15,05,20.80
2017,09,07,15,06,20.80
2017,09,07,15,07,20.90
2017,09,07,15,08,20.90
2017,09,07,15,09,20.80
2017,09,07,15,10,20.80
2017,09,07,15,11,20.80
2017,09,07,15,12,20.80
2017,09,07,15,13,20.80
2017,09,07,15,14,20.80
2017,09,07,15,15,20.80
2017,09,07,15,16,20.90
2017,09,07,15,17,20.90
2017,09,07,15,18,20.80
2017,09,07,15,19,20.80
2017,09,07,15,20,20.80
2017,09,07,15,21,20.90
2017,09,07,15,22,20.90
2017,09,07,15,23,20.90
2017,09,07,15,24,20.90
2017,09,07,15,25,20.90
2017,09,07,15,26,20.90
2017,09,07,15,27,20.90
2017,09,07,15,28,20.90
2017,09,07,15,29,20.90
2017,09,07,15,30,20.90
2017,09,07,15,31,20.90
2017,09,07,15,32,20.90
2017,09,07,15,33,20.90
2017,09,07,15,34,20.90
2017,09,07,15,35,20.80
2017,09,07,15,36,20.70
2017,09,07,15,37,20.70
2017,09,07,15,38,20.70
2017,09,07,15,39,20.60
2017,09,07,15,40,20.60
2017,09,07,15,41,20.60
2017,09,07,15,42,20.60
2017,09,07,15,43,20.70
2017,09,07,15,44,20.70
2017,09,07,15,45,20.80
2017,09,07,15,46,20.80
2017,09,07,15,47,20.80
2017,09,07,15,48,20.80
2017,09,07,15,49,20.80
2017,09,07,15,50,20.80
2017,09,07,15,51,20.70
2017,09,07,15,52,20.70
2017,09,07,15,53,20.70
2017,09,07,15,54,20.70
2017,09,07,15,55,20.70
2017,09,07,15,56,20.70
2017,09,07,15,57,20.70
2017,09,07,15,58,20.70
2017,09,07,15,59,20.70
2017,09,07,16,00,20.60
2017,09,07,16,01,20.60
2017,09,07,16,02,20.60
2017,09,07,16,03,20.60
2017,09,07,16,04,20.60
2017,09,07,16,05,20.60
2017,09,07,16,06,20.60
2017,09,07,16,07,20.60
2017,09,07,16,08,20.60
2017,09,07,16,09,20.60
2017,09,07,16,10,20.50
2017,09,07,16,11,20.50
2017,09,07,16,12,20.50
2017,09,07,16,13,20.50
2017,09,07,16,14,20.40
2017,09,07,16,15,20.40
2017,09,07,16,16,20.40
2017,09,07,16,17,20.40
2017,09,07,16,18,20.40
2017,09,07,16,19,20.40
2017,09,07,16,20,20.40
2017,09,07,16,21,20.40
2017,09,07,16,22,20.40
2017,09,07,16,23,20.30
2017,09,07,16,24,20.40
2017,09,07,16,25,20.40
2017,09,07,16,26,20.40
2017,09,07,16,27,20.40
2017,09,07,16,28,20.40
2017,09,07,16,29,20.40
2017,09,07,16,30,20.40
2017,09,07,16,31,20.40
2017,09,07,16,32,20.40
2017,09,07,16,33,20.40
2017,09,07,16,34,20.40
2017,09,07,16,35,20.50
2017,09,07,16,36,20.50
2017,09,07,16,37,20.50
2017,09,07,16,38,20.50
2017,09,07,16,39,20.50
2017,09,07,16,40,20.50
2017,09,07,16,41,20.50
2017,09,07,16,42,20.50
2017,09,07,16,43,20.50
2017,09,07,16,44,20.50
2017,09,07,16,45,20.50
2017,09,07,16,46,20.60
2017,09,07,16,47,20.60
2017,09,07,16,48,20.60
2017,09,07,16,49,20.60
2017,09,07,16,50,20.60
2017,09,07,16,51,20.60
2017,09,07,16,52,20.50
2017,09,07,16,53,20.50
2017,09,07,16,54,20.50
2017,09,07,16,55,20.50
2017,09,07,16,56,20.50
2017,09,07,16,57,20.50
2017,09,07,16,58,20.40
2017,09,07,16,59,20.40
2017,09,07,17,00,20.40
2017,09,07,17,01,20.40
2017,09,07,17,02,20.40
2017,09,07,17,03,20.40
2017,09,07,17,04,20.40
2017,09,07,17,05,20.40
2017,09,07,17,06,20.40
2017,09,07,17,07,20.40
2017,09,07,17,08,20.30
2017,09,07,17,09,20.30
2017,09,07,17,10,20.30
2017,09,07,17,11,20.30
2017,09,07,17,12,20.30
2017,09,07,17,13,20.30
2017,09,07,17,14,20.30
2017,09,07,17,15,20.30
2017,09,07,17,16,20.30
2017,09,07,17,17,20.30
2017,09,07,17,18,20.30
2017,09,07,17,19,20.30